Lid_Strength_Index
12 11 11 12 11 11 11 11 10 9 9 9 8 6 6 5 3 2 3 4 5 6 6 6 6 6 6 7 6 6 6 5 8 12 12 12 14 14 13 12 12 12 12
12 11 11 11 11 11 11 11 10 10 9 9 8 7 7 7 5 5 6 6 7 8 8 8 9 8 8 8 8 9 9 8 7 11 13 14 14 14 13 13 13 12 12
13 12 11 11 11 11 11 11 10 9 9 9 8 8 8 8 8 8 8 9 10 10 9 9 9 9 10 10 11 11 11 12 11 12 15 14 14 14 14 13 13 12 12
13 12 12 12 12 11 11 11 11 10 10 9 9 9 9 9 9 9 10 10 10 11 11 11 11 10 11 11 11 12 12 12 13 14 14 14 14 14 14 13 13 13 14
14 12 12 12 12 12 12 11 11 11 10 10 10 10 10 10 9 9 10 10 11 12 12 12 12 13 12 12 12 13 12 12 13 13 14 15 15 14 14 14 14 15 15
14 13 12 12 12 12 12 12 12 12 11 11 11 11 10 10 10 10 10 11 11 12 12 12 12 12 11 11 11 12 12 13 14 14 14 15 15 14 14 14 15 15 14
13 13 13 13 14 13 12 12 13 13 12 12 12 11 11 11 10 11 11 11 11 12 12 12 13 13 13 12 12 12 12 12 13 13 14 14 14 14 14 16 16 15 15
13 13 14 14 15 14 13 13 13 13 13 12 12 12 12 11 11 11 12 12 12 13 12 12 13 13 13 13 13 14 14 14 14 13 12 13 13 13 14 14 15 16 17
14 14 14 14 14 14 14 14 14 13 13 13 13 12 12 12 11 12 12 13 13 13 13 13 13 13 12 12 13 14 14 13 11 11 11 12 12 13 14 15 17 16 16
15 14 14 14 14 14 15 15 15 14 14 14 14 13 13 13 12 12 13 13 14 14 13 13 13 12 12 12 13 13 14 14 14 14 14 14 15 15 15 15 16 17 17
17 16 16 15 15 15 15 15 15 15 15 16 16 16 15 14 12 12 12 13 13 14 14 14 13 12 12 12 12 13 14 13 14 15 15 15 16 17 17 17 17 17 17
19 19 19 19 16 16 17 17 17 16 17 17 16 16 16 16 13 11 11 12 12 13 13 13 12 11 11 11 12 12 13 14 15 15 16 17 18 19 19 19 19 19 19
20 20 20 18 19 18 18 18 18 18 17 17 16 15 15 16 15 12 11 11 12 15 14 12 11 11 11 12 12 13 14 14 15 17 17 18 19 21 21 19 20 21 21
19 20 18 17 17 19 17 17 18 18 18 18 17 17 16 15 16 16 14 13 13 14 13 13 13 13 13 13 13 14 14 15 15 16 17 19 21 21 20 21 19 20 18
19 20 20 17 17 17 18 17 17 18 17 18 18 17 17 17 16 15 14 15 15 15 14 16 17 18 17 15 15 15 15 15 16 19 20 20 20 21 21 23 22 22 19
20 20 19 19 19 18 18 18 15 14 14 13 13 16 17 16 14 13 12 13 13 14 17 17 18 20 19 18 17 16 16 16 16 19 20 20 20 20 20 23 22 20 20
18 18 19 19 18 18 19 18 18 16 13 12 12 12 12 15 13 12 12 12 12 13 17 20 20 21 21 21 19 17 17 16 17 19 19 20 21 22 21 21 21 21 22
18 19 18 18 18 19 19 19 18 18 17 16 14 12 12 12 12 12 11 12 13 13 15 18 20 20 20 21 21 21 20 20 17 18 20 21 22 21 22 21 21 20 20
17 17 17 17 18 18 18 19 19 19 19 18 19 16 15 11 11 12 11 13 14 14 14 14 17 19 19 20 20 20 20 19 18 17 18 20 21 21 21 20 20 23 23
17 17 17 16 17 18 18 18 19 19 19 19 19 17 18 16 13 13 13 13 13 13 14 15 14 17 19 20 20 20 20 20 19 18 18 20 20 20 20 21 22 22 22
17 17 17 17 17 17 17 17 17 17 17 18 18 17 17 17 15 14 13 13 13 13 13 14 15 18 19 19 19 20 20 19 19 19 19 21 21 21 20 20 21 22 22
17 17 18 17 17 17 17 16 17 17 17 16 16 16 15 18 17 16 15 13 13 12 12 13 16 16 17 18 18 18 19 19 20 19 19 19 20 20 21 21 21 21 22
18 19 19 18 18 18 18 17 16 16 16 16 16 16 17 16 17 17 16 16 15 14 13 14 15 16 17 17 17 17 18 18 18 18 19 20 20 20 21 21 21 22 22
19 18 18 18 18 17 17 16 16 16 16 16 15 15 16 16 16 16 16 16 16 16 15 16 16 15 16 17 17 17 16 16 16 18 19 19 19 19 20 20 21 21 21
20 19 18 18 18 17 17 17 16 16 15 15 15 14 15 15 15 15 15 15 15 16 16 16 17 17 17 18 18 18 18 17 17 17 18 18 18 19 19 19 19 19 19
22 21 21 22 21 20 18 18 16 16 15 15 15 14 14 14 14 14 14 14 15 16 16 17 17 17 17 17 18 18 18 18 18 17 18 18 18 18 18 18 18 18 19